Aeroporto :
LOGIN :

Iscrizione | Disclaimer

   EN    FR    IT 

 










Sommario :    VFR   VFR Marginale   IFR   IFR Intensivo   IFR Molto Intensivo
Visibilità : 
Base nubi : 
>= 8 km
>= 3000ft
5 / 8 km
1000 / 3000 ft
1500m / 5 km
500 / 1000 ft
800 / 1500m
200 / 500 ft
< 800m
< 200 ft
Simboli :   Temporali  Nebbia  Neve Forte  Precipitazioni Forti  Vento > 20 kt
SIGMETs :   Varie  Temporali  Ghiacco  Turbolenza  Onda orograficha  Ceneri Vulcaniche






- Altitudine del aeroporto : 1895 ft


LSMM - Meiringen

ULTIMO METAR :
  • 060950Z AUTO 19004KT 150V250 9999NDV SCT057 BKN099 23/15 Q1016 RMK

METARs OBSOLETI :
  • 060920Z 23004KT 190V260 9999 SCT042 SCT097 22/15 Q1017 RMK BLU+
  • 060850Z 27006KT 220V330 9999 FEW058 SCT098 22/15 Q1017 RMK BLU+
  • 060820Z 26008KT 240V320 9999 FEW058 21/15 Q1017 RMK BLU+
  • 060750Z 25007KT 220V330 9999 FEW035 BKN054 BKN064 21/16 Q1018 RMK BLU
  • 060720Z 26008KT 240V350 9999 FEW039 BKN049 BKN059 20/17 Q1018 RMK BLU

Previsioni scadute.



MetMap, La meteo Aeronautica in un colpo d'occhio ! - Copyright ORBIFLY Dicembre 2007 - Disclaimer

ORBIFLY MET'MAP TEAM :

Programmazione e sviluppo : Alexandra Zaïnal
Concezione : Baudouin d'Aumeries
Aiuto per la programmazione : Marc-Olivier Méhu
Supporto tecnico e logistico : Manuel Goepfert
Aiuto per la traduzione : Arnaldo La Scala

Contatto : metmap@orbifly.com




FONTI E CREDITI :

   NOAA